Location: Bühlhof
(48.7849°N, 8.6361°E)
Time: 23:48:16
(UTC+00:00)

Cosmos 1992 Rocket - Pass Details

Date: 19 January 2026
Orbit: 754 x 761 km, 74.0° (Epoch: 9 February)

Event Time Altitude Azimuth Distance (km) Brightness Sun altitude
Rises 18:12:12 0° 206° (SSW) 3,195 7.7 -20.9°
Reaches altitude 10° 18:14:33 10° 207° (SSW) 2,274 6.9 -21.3°
Maximum altitude 18:19:43 77° 294° (WNW) 781 4.0 -22.1°
Enters shadow 18:22:51 24° 17° (NNE) 1,519 5.3 -22.6°
